Regional Weather Roundup
Issued by NWS Little Rock, AR

Home | Current Version | Previous Version | Text Only | Print | Product List | Glossary Off
Versions: 1 2 3 4 5 6 7 8 9 10 11 12 13 14 15 16 17 18 19 20 21 22 23 24 25 26 27 28 29 30 31 32 33 34 35 36 37 38 39 40 41 42 43 44 45 46 47 48 49 50

000
ASUS44 KLZK 200615
RWRLZK

WEATHER ROUNDUP FOR ARKANSAS
NATIONAL WEATHER SERVICE LITTLE ROCK AR
100 AM CDT FRI APR 20 2018

NOTE: "FAIR" INDICATES FEW OR NO CLOUDS BELOW 12,000 FEET WITH NO
SIGNIFICANT WEATHER AND/OR OBSTRUCTIONS TO VISIBILITY.

ARZ001-003-010-029-200700-
NORTHWEST ARKANSAS

CITY           SKY/WX    TMP DP  RH WIND       PRES   REMARKS
FAYETTEVILLE   CLEAR     40  32  73 VRB3      30.36S
6HR MIN TEMP:  38; 6HR MAX TEMP:  55;

FORT SMITH     PTCLDY    46  38  73 NE7       30.36R
6HR MIN TEMP:  46; 6HR MAX TEMP:  62;

HARRISON       CLEAR     39  30  70 CALM      30.37S
6HR MIN TEMP:  38; 6HR MAX TEMP:  54;

BENTONVILLE    CLEAR     46  32  58 E6        30.38S
6HR MIN TEMP:  46; 6HR MAX TEMP:  54;

ROGERS         CLEAR     44  32  62 E5        30.38R
6HR MIN TEMP:  44; 6HR MAX TEMP:  53;

SILOAM SPGS    CLEAR     43  33  68 E5        30.36S
6HR MIN TEMP:  43; 6HR MAX TEMP:  54;

HIGHFILL       CLEAR     45  32  60 E5        30.37R
6HR MIN TEMP:  43; 6HR MAX TEMP:  54;

$$

ARZ004-005-016-200700-
NORTH CENTRAL ARKANSAS

CITY           SKY/WX    TMP DP  RH WIND       PRES   REMARKS
BATESVILLE     CLEAR     42  35  76 CALM      30.40R
6HR MIN TEMP:  41; 6HR MAX TEMP:  57;

FLIPPIN        CLEAR     42  32  67 CALM      30.42R
6HR MIN TEMP:  40; 6HR MAX TEMP:  56;

MTN HOME       CLEAR     42  33  70 SE5       30.40R
6HR MIN TEMP:  42; 6HR MAX TEMP:  55;

$$

ARZ040-041-200700-
WEST CENTRAL ARKANSAS

CITY           SKY/WX    TMP DP  RH WIND       PRES   REMARKS
MENA           CLEAR     41  41 100 CALM      30.35R
MOUNT IDA      CLEAR     43  40  89 CALM      30.33R
6HR MIN TEMP:  43; 6HR MAX TEMP:  62;

$$

ARZ009-017-025-026-028-200700-
NORTHEAST ARKANSAS

CITY           SKY/WX    TMP DP  RH WIND       PRES   REMARKS
CORNING        FAIR      45  36  70 CALM      30.40S
JONESBORO      FAIR      43  36  76 N7        30.39S
6HR MIN TEMP:  43; 6HR MAX TEMP:  52;

NEWPORT        FAIR      43  37  79 NE6       30.40R
6HR MIN TEMP:  43; 6HR MAX TEMP:  54;

WALNUT RIDGE   FAIR      44  36  73 NE5       30.40S
6HR MIN TEMP:  43; 6HR MAX TEMP:  54;

BLYTHEVILLE    FAIR      40  34  79 NE5       30.39S
6HR MIN TEMP:  40; 6HR MAX TEMP:  52;

$$

ARZ022-023-033-042-044-200700-
CENTRAL ARKANSAS

CITY           SKY/WX    TMP DP  RH WIND       PRES   REMARKS
LITTLE ROCK    CLEAR     43  36  76 NE8       30.38S
6HR MIN TEMP:  43; 6HR MAX TEMP:  59;

N LITTLE ROCK    N/A     44  35  70 E6        30.36R
6HR MIN TEMP:  44; 6HR MAX TEMP:  57;

JACKSONVILLE   CLEAR     42  36  79 CALM      30.38R
6HR MIN TEMP:  41; 6HR MAX TEMP:  60;

CONWAY           N/A     46  36  66 E8        30.38R
SEARCY         FAIR      44  36  73 MISG        N/A
6HR MIN TEMP:  43; 6HR MAX TEMP:  57;

HOT SPRINGS    CLEAR     45  35  68 E8        30.36R
6HR MIN TEMP:  45; 6HR MAX TEMP:  62;

RUSSELLVILLE   CLEAR     48  32  53 E5        30.38R
6HR MIN TEMP:  45; 6HR MAX TEMP:  60;

CLINTON        FAIR      37  36  93 CALM      30.41R
$$

ARZ036-200700-
EAST ARKANSAS

CITY           SKY/WX    TMP DP  RH WIND       PRES   REMARKS
WEST MEMPHIS   FAIR      46  36  68 NE8       30.36S
6HR MIN TEMP:  45; 6HR MAX TEMP:  52;

$$

ARZ050-053-066-070-073-200700-
SOUTHWEST ARKANSAS

CITY           SKY/WX    TMP DP  RH WIND       PRES   REMARKS
ARKADELPHIA    FAIR      46  38  73 NE3       30.37R
6HR MIN TEMP:  46; 6HR MAX TEMP:  62;

CAMDEN         FAIR      45  36  70 CALM      30.34R
TEXARKANA      CLEAR     48  39  71 E6        30.33R
6HR MIN TEMP:  47; 6HR MAX TEMP:  64;

EL DORADO      FAIR      46  38  73 CALM      30.34R
6HR MIN TEMP:  45; 6HR MAX TEMP:  61;

DE QUEEN       CLEAR     45  43  93 NE5       30.32R
6HR MIN TEMP:  44; 6HR MAX TEMP:  63;

$$

ARZ056-057-069-200700-
SOUTHEAST ARKANSAS

CITY           SKY/WX    TMP DP  RH WIND       PRES   REMARKS
PINE BLUFF     FAIR      47  34  60 NE7       30.36S
6HR MIN TEMP:  47; 6HR MAX TEMP:  57;

STUTTGART      FAIR      46  36  68 NE10      30.37R
6HR MIN TEMP:  46; 6HR MAX TEMP:  55;

MONTICELLO     FAIR      43  37  79 CALM      30.33F
6HR MIN TEMP:  42; 6HR MAX TEMP:  56;


$$





USA.gov is the U.S. government's official web portal to all federal, state and local government web resources and services.